LILACSAT-2

Last updated on Thu Nov 21 2024 00:03:02 GMT+0000 (Coordinated Universal Time)

1 40908U 15049K 24325.56753746 .00016096 00000+0 52521-3 0 9998 2 40908 97.5206 335.9443 0011857 148.8697 211.3249 15.31799475507384
UTC large
Height (km)
Speed (km/s)
/
Latitude / Longitude
Inclination (degrees)
Orbital Period (minutes)
Azimuth
Elevation
Range (km)
Doppler Factor

Next 0 passes for location: London (51.5072 / 0.1276)

Sorry there are no passes over London.